User: anonymous   Login
Location: Kelshall
(52.0000°N, 0.0500°W)
Time: 22:29:21
(UTC+00:00)
Language:

Lacrosse 4 Rocket - Orbit

View from above orbital plane
View from above orbital plane
View from above satellite
View from above satellite

Ground track
Ground track

The orbit data is extracted from the following two-line orbital elements,

1 26474U   047B   20336.73395924  .00000565  00000-0  59607-4 0  9997
2 26474  67.9938 335.2226 0055106   8.3530 351.8515 14.96031919104260
Epoch (UTC): 01 December 2020 17:36:54
Eccentricity: 0.0055106
inclination: 67.9938°
perigee height: 541 km
apogee height: 617 km
right ascension of ascending node: 335.2226°
argument of perigee: 8.3530°
revolutions per day: 14.96031919
mean anomaly at epoch: 351.8515°
orbit number at epoch: 10426

The dashed part of the orbit path shows where the satellite is in the earth's shadow,  

DLR